Flag for Liechtenstein Weather past 2 weeks in Vaduz, Liechtenstein

Now
41 °F

Clear.


Feels Like: 36 °F
Forecast: 38 / 58 °F
Wind: 8 mph from South

Location: Vaduz

Current Time: Dec 22, 2014 at 11:04:29 PM

Latest Report: Dec 22, 2014 at 10:00 PM


Visibility: 16 mi

Pressure: 30.44 "Hg

Humidity: 57%

Dew point: 27 °F

Location of VaduzLocation

Historic Weather in Vaduz — Graph

°F

Vaduz temperature yesterday

Maximum temperature yesterday: 46 °F (at 2:00 PM)
Minimum temperature yesterday: 36 °F (at 10:00 AM)
Average temperature yesterday: 41 °F

Past Weeks' High & Low Weather Summary

 TemperatureHumidityPressure
High59 °F (Dec 13, 2:00 PM)98% (Dec 16, 9:00 AM)30.63 "Hg (Dec 16, 9:00 AM)
Low29 °F (Dec 10, 7:00 AM)27% (Dec 12, 11:00 PM)29.83 "Hg (Dec 12, 11:00 PM)
Average43 °F73%30.18 "Hg
* Reported Dec 7 9:00 PM — Dec 22 9:00 PM, Vaduz, Weather by CustomWeather, © 2014

Note: Actual official high and low records may vary slightly from our data, if they occured in-between our weather recording intervals... More about our weather records

Advertising

Vaduz weather history for previous 24 hours

 ConditionsComfort  
Time TempWeatherWind HumidityBarometerVisibility
9:00 PM
Dec 22
43 °FQuite cool.7 mph51%30.42 "HgN/A
8:00 PM43 °FQuite cool.9 mph52%30.42 "HgN/A
7:00 PM44 °FClear.6 mph51%30.42 "Hg19 mi
6:00 PM41 °FQuite cool.12 mph58%30.43 "HgN/A
5:00 PM40 °FChilly.8 mph65%30.45 "HgN/A
4:00 PM42 °FHaze.10 mph61%30.43 "Hg7 mi
3:00 PM44 °FQuite cool.8 mph62%30.44 "HgN/A
2:00 PM44 °FQuite cool.5 mph57%30.43 "HgN/A
1:00 PM43 °FFog.8 mph62%30.45 "Hg6 mi
12:00 PM41 °FQuite cool.7 mph61%30.48 "HgN/A
11:00 AM39 °FChilly.2 mph61%30.51 "HgN/A
10:00 AM37 °FFog.6 mph61%30.50 "Hg6 mi
9:00 AM36 °FChilly.3 mph64%30.50 "HgN/A
8:00 AM35 °FChilly.7 mph69%30.51 "HgN/A
7:00 AM36 °FFog.7 mph63%30.50 "Hg5 mi
6:00 AM36 °FChilly.7 mph66%30.49 "HgN/A
5:00 AM38 °FChilly.5 mph59%30.50 "HgN/A
3:00 AM38 °FChilly.9 mph58%30.50 "HgN/A
2:00 AM38 °FChilly.10 mph61%30.51 "HgN/A
1:00 AM39 °FFog.7 mph59%30.53 "Hg6 mi
12:00 AM39 °FChilly.6 mph59%30.53 "HgN/A
11:00 PM
Dec 21
39 °FChilly.6 mph61%30.54 "HgN/A
Weather by CustomWeather, © 2014

See weather overviewHow to use our weather pages